Location: Guadanolo
(41.9167°N, 12.9333°E)
Time: 09:30:20
(UTC+00:00)

Cosmos 1975 - Pass Details

Date: 16 September 2019
Orbit: 543 x 561 km, 82.5° (Epoch: 15 October)

Event Time Altitude Azimuth Distance (km) Brightness Sun altitude
Rises 17:36:02 0° 179° (S) 2,691 6.3 -4.4°
Reaches altitude 10° 17:38:11 10° 176° (S) 1,804 5.3 -4.8°
Maximum altitude 17:42:06 63° 95° (E) 611 2.8 -5.5°
Drops below altitude 10° 17:46:04 10° 14° (NNE) 1,823 5.4 -6.2°
Sets 17:48:15 0° 12° (NNE) 2,723 6.3 -6.6°
